Wind_Speed
56 67 69 64 63 64 71 72 72 62 74 76 80 83 84 81 82 83 75 76 67 66 61 63 63 63 62 70 76 66 59 57 53 54 54 55 49 47 49 52 52 50 49 46
46 48 59 55 50 63 69 66 65 70 69 72 70 72 81 64 63 72 72 59 57 55 54 54 54 55 63 65 66 68 65 60 56 56 52 51 51 50 52 53 53 52 48 45
55 59 57 55 64 57 54 59 54 59 64 62 60 65 64 66 65 62 58 56 63 65 67 68 61 58 66 62 56 62 68 65 61 56 49 50 50 52 54 54 55 55 54 54
55 51 53 55 62 49 53 63 64 60 72 70 67 71 71 68 70 64 70 63 61 64 62 59 58 62 55 50 51 53 55 55 57 56 51 48 48 49 52 55 51 52 54 54
67 68 53 70 61 61 69 73 64 72 68 68 62 61 61 58 59 64 59 57 54 51 52 52 49 51 51 54 53 56 54 54 54 54 55 53 51 51 54 53 52 53 55 57
49 54 72 67 70 68 49 50 48 64 61 44 44 45 47 48 45 53 47 47 49 53 52 53 52 51 52 56 54 53 51 54 55 57 54 53 56 51 45 47 48 48 51 50
25 23 32 44 49 44 46 46 51 53 45 39 43 42 43 44 45 46 42 40 44 51 53 49 43 41 46 49 50 51 52 52 51 50 49 52 46 48 51 50 48 48 47 48
22 23 24 26 27 29 31 33 35 39 38 37 40 43 50 51 49 56 53 48 50 54 53 49 48 48 50 48 46 45 47 49 52 51 51 52 46 44 49 49 52 50 50 49
23 26 29 32 31 33 35 38 39 43 42 41 43 45 52 62 59 62 59 61 58 53 52 54 50 47 49 50 47 46 52 51 51 52 53 54 43 48 50 48 49 47 46 45
27 29 28 29 33 36 36 37 42 43 39 41 44 50 49 52 56 59 66 64 62 66 55 48 42 37 41 47 48 52 53 52 51 52 54 58 46 55 50 50 46 43 43 42
26 30 31 32 34 36 40 44 47 42 41 46 45 44 41 44 48 50 53 57 60 63 57 51 48 48 48 51 51 50 50 52 56 57 55 53 45 45 46 47 44 43 42 36
22 24 25 32 35 35 32 35 38 39 42 37 38 40 40 42 43 44 43 46 50 48 52 55 60 59 58 56 57 55 59 56 51 50 54 52 48 43 42 42 44 43 40 41
26 22 24 27 24 21 25 25 26 25 24 24 28 27 26 28 31 34 37 39 42 42 44 48 53 53 52 51 52 51 49 49 52 50 53 46 44 39 42 44 48 45 43 43
23 22 21 19 17 16 17 17 18 19 19 20 21 22 23 25 26 29 32 34 35 36 36 37 40 42 44 45 47 49 48 48 48 48 46 47 38 40 42 45 46 43 40 39
20 22 21 20 19 19 20 20 20 20 21 22 22 23 24 24 26 29 30 31 31 32 34 33 32 34 39 40 45 43 40 44 49 51 50 49 47 44 43 43 42 42 40 40
15 17 19 18 18 17 18 18 20 19 19 19 20 19 21 21 21 22 23 24 25 26 27 29 31 33 39 41 44 39 45 50 52 55 54 54 52 48 46 45 40 37 38 35
13 14 15 15 15 14 15 15 16 17 16 15 15 15 15 17 18 19 19 22 24 26 28 27 30 25 30 37 42 21 37 46 53 58 63 61 52 42 39 38 35 35 32 29
11 11 12 12 10 10 11 12 12 11 10 11 13 14 16 17 15 17 19 21 23 22 20 17 22 28 31 29 19 25 24 24 28 31 33 33 37 35 31 29 28 26 27 27
12 12 10 9 9 7 7 9 10 10 11 12 15 17 17 16 13 13 14 13 10 12 15 18 18 18 21 22 23 23 21 15 9 5 4 4 10 15 21 23 21 22 20 25
14 14 8 7 7 7 7 11 8 9 8 10 13 6 10 15 12 10 8 9 11 6 8 5 7 8 9 13 10 8 6 4 2 10 13 8 4 10 12 15 18 15 16 9
19 15 15 14 12 9 8 11 8 10 8 7 8 10 12 13 13 9 8 7 5 5 6 3 1 3 9 7 7 7 7 6 8 9 13 11 8 6 5 6 10 17 16 16
25 18 15 12 11 9 13 14 11 9 7 4 3 5 9 9 10 11 9 6 5 2 4 1 7 7 6 7 6 8 9 10 10 11 12 6 12 10 10 11 13 15 16 20
26 24 21 17 13 15 14 12 10 7 9 5 6 7 5 10 9 7 6 5 4 3 2 4 8 7 4 4 3 3 3 2 3 7 10 12 10 10 10 11 13 11 9 10
24 22 17 17 16 15 14 12 10 11 6 3 10 10 8 8 6 6 4 4 2 4 5 5 5 6 5 6 7 7 7 7 7 7 8 10 10 8 8 11 12 10 10 10
20 23 23 20 16 16 16 14 15 10 5 3 5 11 10 7 6 5 3 4 3 2 3 3 8 9 9 13 16 16 17 17 17 17 15 14 12 10 10 14 13 10 10 11
24 22 21 19 16 14 16 20 15 13 7 5 7 8 9 6 4 3 2 3 5 2 6 7 12 12 12 13 14 14 14 15 15 14 12 11 11 11 12 16 16 15 12 13
22 20 17 16 15 19 18 12 11 14 13 7 5 4 3 4 2 3 2 4 5 8 10 11 14 15 12 10 8 8 8 8 7 7 9 11 10 11 11 12 14 15 15 16
Wind_Direction
220 217 223 226 226 226 228 227 224 217 232 234 237 241 239 240 246 249 256 256 257 254 244 257 259 261 257 255 259 266 268 265 270 275 275 275 265 265 267 264 267 267 267 261
191 202 213 205 224 222 227 226 226 230 231 228 232 241 238 240 249 246 248 247 247 243 243 251 260 259 261 265 265 263 268 268 272 273 265 266 266 264 262 262 262 262 258 259
183 185 196 189 198 205 212 207 212 216 220 230 241 235 219 252 231 228 231 238 246 246 250 255 258 255 264 265 261 264 263 269 274 273 264 257 256 263 267 265 265 266 263 264
203 198 199 214 204 217 218 216 216 224 222 229 223 225 228 232 226 237 246 246 247 249 250 252 253 256 256 248 249 256 265 266 266 265 261 253 253 256 260 260 260 263 265 266
193 192 199 197 197 207 198 204 209 207 211 209 214 217 221 223 223 228 234 242 246 247 246 244 244 247 249 242 245 248 254 256 258 258 259 258 256 262 258 258 265 267 268 271
190 196 198 198 190 193 198 198 204 215 206 216 223 231 236 241 248 242 238 239 238 241 242 240 243 248 246 246 247 252 255 252 254 255 256 257 259 264 267 265 266 271 270 273
225 216 213 212 210 218 226 228 224 221 237 244 248 243 247 248 233 236 239 236 235 238 237 240 244 247 249 248 247 248 250 249 250 255 257 258 262 264 269 274 275 274 272 269
218 238 243 246 246 250 254 255 253 258 266 264 255 240 228 228 221 226 228 234 232 230 234 247 253 253 253 248 248 241 246 254 259 263 267 267 260 269 281 282 275 280 280 279
230 228 232 238 243 250 254 258 263 267 262 261 249 243 230 223 225 232 237 235 235 235 248 255 253 258 257 251 253 255 255 252 251 258 265 271 274 272 273 280 279 276 276 276
263 262 259 257 257 259 264 269 271 265 261 250 244 245 241 238 235 233 231 237 246 245 249 244 236 236 243 243 245 237 241 246 253 262 271 274 274 268 274 280 283 275 274 274
258 265 270 271 266 265 269 270 266 258 251 247 241 238 235 231 238 239 238 239 242 245 249 235 229 230 235 240 241 251 259 268 268 269 272 273 271 268 270 269 271 273 272 266
236 231 239 249 246 246 247 253 258 255 247 231 218 219 224 232 234 230 238 239 244 244 242 242 241 244 252 259 261 264 265 270 272 268 271 275 274 271 268 267 267 267 266 264
213 201 198 198 197 194 200 202 207 213 217 219 222 229 234 236 242 244 245 245 243 246 249 250 251 255 258 262 262 261 261 261 261 263 269 268 264 266 266 259 262 264 261 262
211 210 205 197 198 201 204 205 206 209 213 217 220 224 231 236 237 239 242 244 245 249 249 252 256 260 261 262 262 260 262 262 263 263 261 264 263 265 260 261 263 265 265 264
206 202 203 205 203 206 211 215 218 220 223 227 230 235 237 239 241 244 248 254 257 256 256 255 255 255 257 258 259 262 266 267 265 264 262 265 261 258 259 261 264 266 266 262
192 196 202 203 209 216 222 224 225 229 235 237 236 235 238 241 242 241 243 248 254 259 264 263 265 275 277 271 267 266 265 266 266 265 263 262 262 260 258 259 259 259 259 259
183 188 192 197 201 205 213 220 227 234 236 234 236 231 229 231 235 239 244 248 252 258 264 271 271 270 273 272 277 282 261 258 257 258 256 254 256 261 264 264 261 260 258 252
174 177 176 178 185 202 210 214 220 223 219 223 237 241 241 242 246 244 246 251 256 262 257 253 263 266 275 288 282 262 274 279 279 274 270 260 250 253 250 248 244 236 244 248
177 177 189 193 186 205 231 233 229 235 234 234 241 242 241 237 234 243 254 253 258 263 276 278 274 272 272 278 292 288 277 279 261 257 238 218 226 229 230 228 224 236 240 244
189 195 207 212 228 237 239 241 224 206 201 208 238 247 210 197 206 243 250 260 276 272 265 292 302 290 302 307 307 297 285 273 194 140 133 107 173 215 214 214 215 235 194 173
215 217 230 245 253 256 233 213 201 179 199 223 218 197 191 203 211 222 252 258 266 239 218 270 148 331 289 319 337 349 358 75 100 137 168 77 143 197 206 215 219 235 264 266
207 220 232 252 255 240 192 193 185 193 214 218 226 206 202 217 235 237 247 254 257 239 282 358 69 33 329 138 96 94 109 100 106 145 176 197 121 146 193 215 228 250 268 274
228 237 245 253 229 190 181 182 190 202 183 194 201 175 164 185 212 233 220 215 265 248 69 98 91 32 326 74 86 66 113 120 160 182 198 216 224 221 235 246 246 236 255 285
222 226 221 185 185 177 190 191 185 177 166 167 175 166 175 162 127 124 111 102 140 115 51 72 357 296 313 295 281 282 280 283 284 284 276 257 256 267 264 234 231 244 267 287
189 175 176 173 175 190 188 183 177 175 167 163 181 172 159 153 117 83 80 67 31 9 345 304 292 299 298 302 304 299 290 282 282 282 287 289 286 279 276 250 249 257 269 282
165 170 173 173 180 183 194 177 182 187 184 141 156 160 145 110 76 41 4 347 313 277 280 273 285 289 290 292 295 297 294 293 287 285 278 265 257 255 252 250 251 252 266 281
166 170 175 185 191 185 168 177 193 209 200 196 200 183 163 206 89 27 342 302 288 288 293 302 290 276 281 269 270 280 279 273 272 276 266 251 250 248 249 254 250 252 264 277
Height
5466 5480 5495 5509 5520 5532 5539 5545 5558 5567 5575 5578 5577 5585 5603 5615 5613 5617 5617 5629 5637 5641 5648 5649 5651 5654 5656 5659 5666 5671 5675 5675 5677 5678 5677 5681 5680 5684 5685 5683 5685 5685 5687 5694
5460 5472 5488 5500 5509 5516 5525 5535 5545 5552 5560 5559 5566 5575 5585 5597 5598 5604 5607 5616 5623 5628 5634 5637 5635 5637 5639 5645 5649 5657 5659 5661 5666 5671 5662 5664 5668 5671 5671 5669 5671 5672 5670 5680
5453 5465 5480 5489 5491 5500 5515 5527 5529 5542 5545 5545 5557 5568 5574 5580 5588 5591 5595 5604 5610 5616 5620 5623 5621 5622 5627 5631 5637 5643 5647 5648 5651 5655 5652 5650 5655 5657 5661 5657 5657 5656 5657 5659
5449 5457 5468 5476 5487 5494 5506 5508 5513 5526 5532 5543 5548 5556 5564 5570 5575 5574 5582 5590 5599 5604 5607 5612 5603 5608 5615 5620 5625 5628 5630 5634 5638 5640 5638 5639 5644 5651 5650 5644 5644 5640 5648 5644
5438 5448 5454 5464 5473 5485 5493 5499 5506 5511 5520 5526 5534 5539 5549 5556 5558 5563 5568 5580 5589 5590 5592 5595 5595 5595 5602 5606 5612 5615 5618 5620 5624 5626 5625 5625 5630 5638 5633 5633 5634 5633 5631 5631
5435 5441 5448 5458 5460 5472 5473 5482 5491 5502 5509 5517 5523 5529 5536 5545 5549 5550 5557 5567 5572 5571 5575 5580 5585 5587 5592 5595 5602 5604 5607 5609 5610 5611 5613 5611 5617 5628 5625 5620 5619 5618 5617 5623
5430 5435 5441 5448 5455 5460 5466 5475 5482 5492 5501 5508 5516 5519 5527 5533 5538 5540 5548 5555 5557 5560 5565 5570 5574 5579 5581 5583 5588 5592 5593 5595 5595 5597 5597 5597 5614 5613 5604 5604 5605 5606 5604 5605
5430 5433 5438 5445 5450 5456 5463 5470 5478 5484 5490 5496 5504 5511 5516 5518 5525 5532 5539 5545 5551 5552 5556 5559 5562 5567 5572 5572 5575 5581 5581 5580 5583 5583 5582 5587 5600 5603 5590 5585 5590 5592 5589 5590
5426 5432 5437 5442 5447 5451 5456 5462 5469 5475 5480 5487 5491 5496 5506 5510 5515 5519 5527 5532 5539 5542 5546 5549 5550 5554 5561 5561 5564 5569 5570 5571 5572 5572 5569 5573 5593 5585 5579 5570 5579 5579 5578 5577
5415 5419 5426 5433 5439 5440 5445 5452 5459 5462 5469 5473 5480 5486 5491 5497 5501 5511 5518 5523 5524 5527 5533 5535 5538 5541 5547 5550 5553 5559 5558 5558 5558 5562 5557 5561 5580 5570 5565 5560 5567 5566 5567 5566
5412 5414 5416 5420 5424 5425 5434 5439 5445 5454 5460 5465 5470 5472 5479 5483 5487 5497 5508 5510 5511 5517 5522 5524 5527 5529 5534 5537 5542 5543 5545 5545 5546 5545 5544 5551 5561 5560 5553 5551 5550 5553 5555 5555
5409 5413 5418 5423 5424 5428 5433 5436 5441 5444 5451 5459 5463 5467 5471 5477 5482 5489 5494 5495 5501 5504 5508 5512 5512 5518 5522 5527 5529 5533 5531 5533 5532 5531 5533 5541 5541 5542 5538 5538 5540 5542 5544 5545
5407 5410 5414 5421 5424 5428 5433 5439 5443 5447 5451 5455 5460 5463 5468 5471 5475 5479 5486 5487 5492 5497 5498 5501 5504 5508 5513 5513 5516 5518 5518 5520 5515 5518 5527 5521 5526 5529 5528 5523 5525 5531 5533 5532
5403 5408 5412 5416 5420 5424 5429 5434 5438 5443 5448 5452 5457 5461 5464 5467 5470 5474 5477 5481 5486 5488 5491 5492 5493 5497 5498 5499 5499 5499 5504 5505 5502 5502 5507 5503 5516 5514 5512 5512 5512 5516 5521 5524
5400 5404 5408 5413 5417 5420 5425 5429 5434 5439 5444 5447 5451 5454 5457 5461 5464 5468 5469 5471 5474 5477 5479 5482 5485 5485 5483 5485 5483 5489 5494 5491 5485 5486 5488 5488 5498 5499 5501 5502 5503 5505 5507 5508
5397 5401 5405 5409 5413 5417 5422 5426 5430 5433 5437 5441 5445 5449 5451 5454 5457 5460 5463 5465 5466 5468 5470 5472 5474 5473 5470 5471 5472 5482 5476 5471 5470 5471 5474 5474 5479 5484 5486 5488 5492 5493 5493 5496
5397 5400 5404 5408 5412 5415 5419 5423 5426 5429 5433 5436 5439 5442 5446 5448 5451 5454 5457 5458 5460 5461 5463 5465 5464 5463 5457 5458 5461 5465 5455 5453 5450 5447 5450 5456 5462 5470 5475 5477 5480 5483 5485 5487
5396 5399 5403 5407 5410 5414 5417 5420 5424 5427 5430 5433 5435 5437 5440 5442 5445 5448 5450 5451 5453 5455 5456 5458 5457 5455 5452 5451 5451 5447 5445 5443 5440 5438 5438 5443 5451 5458 5462 5466 5469 5472 5476 5479
5396 5399 5403 5407 5410 5413 5416 5418 5421 5424 5428 5429 5431 5433 5436 5438 5440 5442 5444 5446 5448 5450 5451 5450 5449 5448 5446 5445 5442 5440 5439 5438 5437 5436 5437 5441 5446 5450 5454 5458 5463 5467 5470 5469
5395 5399 5403 5406 5410 5412 5414 5416 5419 5421 5423 5426 5427 5430 5431 5435 5437 5439 5442 5443 5444 5445 5447 5445 5445 5444 5442 5439 5438 5436 5435 5435 5436 5437 5440 5442 5445 5448 5451 5456 5460 5462 5465 5465
5394 5398 5402 5405 5407 5410 5412 5414 5417 5420 5423 5424 5426 5428 5430 5433 5436 5437 5439 5440 5441 5443 5444 5444 5444 5443 5441 5438 5437 5436 5435 5436 5438 5440 5441 5444 5445 5448 5451 5455 5458 5460 5462 5464
5393 5397 5400 5403 5406 5408 5411 5413 5417 5420 5422 5424 5425 5427 5429 5431 5433 5434 5437 5438 5439 5440 5441 5442 5442 5441 5441 5439 5439 5438 5439 5439 5440 5442 5443 5446 5447 5450 5452 5455 5457 5458 5459 5459
5390 5394 5398 5402 5404 5407 5410 5414 5417 5419 5422 5423 5424 5427 5428 5430 5431 5433 5435 5436 5438 5439 5439 5440 5442 5442 5441 5440 5441 5442 5443 5444 5444 5445 5446 5447 5449 5451 5452 5454 5456 5457 5457 5457
5387 5392 5397 5400 5404 5408 5410 5414 5417 5419 5421 5422 5424 5426 5427 5430 5431 5432 5434 5436 5436 5438 5439 5440 5441 5441 5441 5441 5442 5442 5442 5443 5443 5445 5446 5447 5447 5448 5450 5451 5452 5453 5452 5452
5385 5390 5395 5399 5403 5407 5410 5413 5416 5418 5420 5422 5423 5426 5428 5429 5431 5432 5434 5435 5436 5437 5439 5440 5439 5439 5439 5440 5440 5440 5440 5441 5441 5442 5443 5443 5444 5445 5446 5448 5448 5449 5449 5449
5385 5391 5396 5399 5402 5406 5409 5412 5415 5418 5420 5422 5424 5426 5427 5429 5430 5432 5432 5434 5434 5436 5436 5437 5438 5438 5438 5438 5438 5438 5438 5438 5438 5438 5439 5440 5440 5441 5442 5443 5444 5445 5445 5445
5387 5392 5395 5399 5402 5406 5409 5412 5415 5417 5419 5422 5424 5426 5427 5429 5430 5431 5432 5434 5434 5434 5434 5434 5434 5434 5435 5435 5435 5435 5435 5435 5435 5435 5435 5436 5436 5437 5437 5438 5439 5440 5441 5441